Vorticity
nan nan nan nan nan nan nan nan nan nan nan nan nan nan nan nan nan nan nan nan nan nan nan nan nan nan nan nan nan nan nan nan nan nan nan nan nan nan nan nan nan nan nan nan
nan 8 10 9 6 7 3 3 -1 10 11 10 18 14 11 10 10 6 4 7 7 7 5 10 9 9 8 8 7 7 6 5 4 6 6 7 9 8 9 9 10 9 8 nan
nan 8 10 3 6 11 8 6 8 2 8 13 9 5 14 8 12 13 11 9 9 8 5 5 6 6 8 8 8 7 9 7 5 4 3 4 7 9 9 9 11 11 9 nan
nan 12 8 6 5 5 8 10 8 3 7 11 2 10 8 10 11 15 10 7 8 7 8 9 8 4 5 7 8 7 8 9 8 6 6 5 4 6 7 8 9 11 11 nan
nan 15 6 9 9 1 4 10 12 12 6 6 5 10 13 15 6 9 13 11 8 9 8 7 8 8 4 6 7 8 6 7 10 7 5 5 5 5 7 10 10 9 11 nan
nan 7 15 13 13 10 8 9 10 13 10 6 15 3 8 16 12 6 9 11 12 8 8 9 9 7 7 6 7 10 8 5 7 8 8 7 4 4 4 7 9 10 10 nan
nan 5 5 13 8 13 13 6 7 9 13 10 10 9 11 11 16 11 1 4 14 14 8 8 8 8 9 9 7 8 10 7 6 7 7 7 6 6 5 6 9 9 6 nan
nan 9 11 6 7 7 7 10 6 7 8 13 13 8 12 18 15 11 6 5 10 12 9 9 9 8 8 9 8 9 8 8 7 7 6 7 6 4 8 8 8 10 10 nan
nan 9 16 9 9 3 5 13 10 6 2 5 10 7 11 16 18 16 8 10 11 11 10 8 8 9 9 9 10 8 7 8 8 7 6 7 7 7 7 9 8 10 10 nan
nan 14 13 16 9 6 12 1 7 16 15 2 5 7 13 6 11 22 18 10 9 10 11 8 10 11 9 9 11 10 9 9 7 6 5 8 8 6 7 8 9 8 9 nan
nan 1 5 10 14 13 2 2 7 10 11 11 4 6 15 8 9 14 21 16 11 9 11 9 10 13 10 9 11 9 10 8 8 8 8 6 9 9 6 5 8 9 9 nan
nan 10 11 6 6 17 11 5 3 8 9 10 13 8 7 16 8 13 18 22 18 10 8 11 12 10 12 11 9 9 8 9 8 8 8 7 8 10 7 6 6 9 10 nan
nan 21 6 6 6 15 22 16 1 1 15 13 2 17 10 8 8 12 15 11 12 11 7 15 20 14 11 10 9 9 9 9 8 8 8 8 8 9 9 8 7 6 9 nan
nan 22 17 14 4 2 9 17 13 2 -0 10 2 2 6 8 9 11 16 11 8 6 11 13 12 12 11 11 10 8 9 11 9 8 8 8 8 8 9 9 9 8 8 nan
nan 11 10 17 27 11 -1 8 11 9 9 5 10 5 7 7 8 8 7 12 16 11 11 15 12 10 11 10 9 9 11 10 10 9 7 8 7 9 9 10 9 9 10 nan
nan 10 12 18 28 19 5 1 8 10 12 6 9 11 14 10 8 12 11 9 10 15 18 14 12 9 9 10 10 9 9 11 9 8 9 8 9 9 9 9 10 9 9 nan
nan 4 11 11 22 25 22 16 5 8 16 16 5 7 7 10 9 10 11 14 10 14 17 16 15 8 7 10 10 10 9 10 10 8 9 9 9 9 10 10 9 11 8 nan
nan 7 8 8 21 15 18 25 11 11 10 15 14 11 13 10 12 11 11 10 12 10 15 18 8 15 13 10 10 10 10 10 9 9 8 10 9 9 10 10 9 10 11 nan
nan 2 6 12 10 12 12 14 18 11 7 14 20 15 14 12 10 11 13 14 12 6 10 9 12 12 16 16 10 11 10 10 9 9 9 9 10 10 11 10 9 8 10 nan
nan 21 -1 2 9 12 9 8 8 8 6 14 18 16 13 15 7 4 8 13 11 10 15 9 9 13 14 12 16 12 8 9 7 8 9 10 10 10 10 12 10 10 11 nan
nan 21 17 6 6 7 6 9 17 13 8 8 11 11 13 13 13 12 13 13 14 12 9 11 15 12 10 13 14 11 11 10 10 10 10 12 13 11 10 11 13 12 9 nan
nan 10 13 10 11 -4 -0 30 22 4 13 11 8 11 12 8 11 13 15 14 10 12 15 17 13 12 14 16 13 12 9 12 12 12 13 12 12 11 16 13 10 10 10 nan
nan 7 7 15 6 6 12 12 9 18 14 10 14 13 9 9 7 12 9 10 12 15 16 17 22 13 14 24 19 13 10 11 16 16 14 13 13 14 14 9 6 9 11 nan
nan 11 6 9 2 5 17 16 13 16 15 15 10 11 13 12 9 10 10 10 10 9 10 11 15 21 23 13 18 21 24 18 13 12 12 13 13 11 9 10 10 10 8 nan
nan 14 10 5 4 5 14 12 14 10 9 9 11 13 13 10 12 10 8 8 10 9 9 11 7 5 10 21 20 21 19 17 14 11 10 9 11 8 3 9 16 12 14 nan
nan nan nan nan nan nan nan nan nan nan nan nan nan nan nan nan nan nan nan nan nan nan nan nan nan nan nan nan nan nan nan nan nan nan nan nan nan nan nan nan nan nan nan nan
CAPE
0 0 0 0 0 0 0 0 0 0 0 0 0 0 0 198 511 583 600 551 483 454 342 310 154 249 274 680 1060 1144 1120 851 971 923 986 990 1053 946 859 925 416 629 819 933
0 0 0 0 0 0 0 0 0 0 0 0 1 0 0 8 65 278 321 375 453 409 352 255 204 323 319 755 1023 1129 1033 818 772 820 923 979 1030 948 994 731 720 657 647 812
0 0 0 0 0 0 0 0 0 0 0 0 6 35 2 0 1 2 46 88 211 190 171 207 285 287 431 688 776 744 1072 1051 919 916 1001 894 817 773 944 884 852 907 1017 1006
0 0 0 0 0 0 0 0 0 0 0 0 7 1 43 0 0 0 0 4 62 71 32 94 277 229 370 609 669 657 820 1350 1191 1176 1156 1140 1033 1027 979 841 947 1330 1323 1202
0 0 0 0 0 0 0 0 0 0 0 0 0 0 0 11 0 0 0 1 59 24 36 7 218 267 257 437 698 643 467 1499 1468 1388 1214 1172 991 873 578 768 979 945 1405 1349
0 0 0 0 0 0 0 0 0 0 0 0 0 0 0 0 0 0 1 0 2 28 16 0 74 153 215 353 681 762 614 777 1460 1493 1334 1267 1101 858 651 577 738 948 1480 1244
0 0 0 0 0 0 0 0 0 0 0 0 0 0 0 0 0 0 26 0 0 2 37 0 3 71 97 205 565 924 850 740 1102 1520 1388 1283 1121 897 722 446 791 1251 1336 1034
0 0 0 0 0 0 0 0 0 0 0 0 0 0 0 0 0 7 13 1 0 0 4 17 4 63 63 184 591 935 1074 961 1186 1274 1446 1411 1237 1111 975 373 1032 1141 1291 1349
0 0 0 0 0 0 0 0 0 0 0 0 0 0 0 0 0 0 2 5 0 0 0 0 36 66 122 220 567 903 1332 1231 1368 1565 1234 1471 1554 1307 1123 849 946 1129 1014 1099
0 0 0 0 0 0 0 0 0 0 0 0 0 0 0 0 0 0 0 6 2 0 0 0 2 118 246 220 610 1040 1415 1448 1651 1818 1647 1433 1434 1625 1211 828 1206 1064 873 1003
0 0 0 0 0 0 0 0 0 0 0 0 0 0 0 0 0 0 6 27 19 10 8 0 4 120 289 357 795 1198 1442 1435 1748 1969 1883 1868 1645 1384 1496 1230 1256 1410 846 587
0 0 0 0 0 0 0 0 0 0 0 0 0 0 0 0 0 0 0 1 114 100 3 8 1 71 259 524 940 1143 1665 1674 1771 2102 2106 2028 2035 1836 1510 1410 1453 1197 1201 643
0 0 0 0 0 0 0 0 0 0 0 0 0 0 0 0 0 0 0 0 0 0 0 0 23 77 303 570 807 1269 1632 1949 2092 2178 2206 2396 2240 2151 1864 1511 1544 1479 1253 698
0 0 0 0 0 0 0 0 0 0 0 0 0 0 0 0 0 0 0 2 9 19 0 0 45 115 443 671 831 1306 1527 2157 2236 2450 2422 2449 2479 2343 2279 1920 1640 1556 1604 984
0 0 0 0 0 0 0 0 0 0 0 0 0 0 0 0 0 0 0 0 4 60 2 2 58 181 561 827 870 1216 1703 1983 2322 2487 2667 2618 2607 2560 2543 2338 2043 1773 2066 1292
0 0 0 0 0 0 0 0 0 0 0 0 0 0 0 0 0 0 0 0 0 0 6 76 128 332 610 875 930 1087 1562 2252 2363 2615 2699 2723 2782 2703 2679 2718 2566 2037 1957 1990
0 0 0 0 0 0 0 0 0 0 0 0 0 0 0 0 0 0 0 0 0 0 137 190 266 517 613 906 1025 1017 1515 2088 2550 2707 2873 2898 2776 2725 2687 2723 2700 2599 2070 1733
0 0 0 0 0 0 0 0 0 0 0 0 0 0 0 0 0 0 0 0 0 0 1 298 308 446 688 922 1103 1195 1310 1815 2442 2608 2833 3023 2910 2750 2690 2729 2768 2642 2575 2044
0 0 0 0 0 0 0 0 0 0 0 0 0 0 0 0 0 0 0 0 0 0 0 3 240 457 487 675 965 1217 1317 1559 1861 2292 2589 2795 2828 2622 2684 2611 2764 2582 2648 2413
0 0 0 0 0 0 0 0 3 0 227 179 0 0 0 0 0 0 0 404 0 0 0 0 0 336 1096 541 790 989 1192 1481 1653 1921 2250 2648 2694 2543 2547 2669 2688 2700 2665 2610
3 0 1 0 0 0 14 14 54 51 37 57 6 0 0 5 0 0 9 589 508 281 35 0 0 0 347 1211 714 742 941 1232 1541 1808 1996 2208 2543 2563 2540 2745 2738 2842 2455 2189
6 34 74 0 2 151 0 30 47 109 931 882 968 551 814 892 1028 955 444 400 737 443 438 1579 28 0 0 576 1004 799 782 937 1269 1482 1595 1609 2221 2421 2772 2735 2540 2252 1850 1689
79 4 1 0 0 0 0 177 414 440 500 499 511 487 471 604 501 654 1146 1494 1731 1775 1857 2025 2077 992 2197 900 1287 1114 939 941 954 1046 1537 1995 2462 2721 2584 2266 1934 1502 1353 1169
71 83 22 0 0 0 421 526 199 42 155 64 27 9 11 87 14 0 0 67 151 72 159 101 532 1898 2727 2420 1771 1290 1148 1218 1571 2567 3015 2721 2367 2034 1805 1371 1334 982 812 681
134 100 122 0 0 0 11 124 99 0 0 0 0 0 0 0 0 0 0 0 0 0 0 0 0 0 0 1927 3123 3036 2839 3199 3060 2640 2381 1990 1381 1418 357 0 323 389 246 397
56 135 189 107 1 2 1 2 2 0 0 0 0 0 0 0 0 0 0 0 0 0 0 0 0 0 0 0 423 3267 3154 2693 2210 1829 1749 1351 145 1 1 1 1 0 0 2